Regional Weather Roundup
Issued by NWS Kansas City/Pleasant Hill, MO

Home | Current Version | Previous Version | Text Only | Print | Product List | Glossary On
Versions: 1 2 3 4 5 6 7 8 9 10 11 12 13 14 15 16 17 18 19 20 21 22 23 24 25 26 27 28
000
ASUS43 KEAX 261610
RWREAX

WEATHER ROUNDUP FOR EASTERN KANSAS AND NORTHWEST MISSOURI
NATIONAL WEATHER SERVICE KANSAS CITY/PLEASANT HILL MO
1100 AM CDT FRI AUG 26 2016

KSZ040-057-103>105-MOZ028-029-037-043-261700-
...KANSAS CITY METROPOLITAN AREA...

CITY           SKY/WX    TMP DP  RH WIND       PRES   REMARKS
K.C. INTL      CLOUDY    73  66  78 SE13      30.11F
K.C. DOWNTOWN  CLOUDY    75  68  78 E7        30.10F
LEES SUMMIT    MOSUNNY   74  68  81 E13       30.11F
OLATHE - IXD   CLOUDY    74  68  81 E8        30.11F
OLATHE - OJC   CLOUDY    73  69  87 E10       30.11F
LAWRENCE       CLOUDY    74  71  91 E8        30.10S

$$

MOZ001>008-011>017-020>025-030>033-038>040-044>046-053-054-261700-
...NORTHERN AND CENTRAL MISSOURI...

CITY           SKY/WX    TMP DP  RH WIND       PRES   REMARKS
ST. JOSEPH     CLOUDY    70  67  90 E7        30.10F
MOSBY          CLOUDY    73  68  83 E3        30.11F
WHITEMAN AFB   CLOUDY    73  73 100 NE6       30.11F FOG
CLINTON        CLOUDY    73  73 100 CALM      30.13S FOG
SEDALIA        CLOUDY    74  70  87 VRB3      30.14S
WARSAW         NOT AVBL
CHILLICOTHE      N/A     75  67  76 E3        30.13
KIRKSVILLE     CLOUDY    71  64  78 E7        30.16S

$$

MOZ041-047>049-056>058-063>065-088>090-097-261700-
...EASTERN AND SOUTHERN MISSOURI...

CITY           SKY/WX    TMP DP  RH WIND       PRES   REMARKS
ST. LOUIS INTL CLOUDY    84  71  65 CALM      30.12R
SPIRIT OF STL  CLOUDY    81  74  79 CALM      30.10S
COLUMBIA       CLOUDY    73  73 100 NE6       30.13S FOG
JEFFERSON CITY CLOUDY    81  71  71 CALM      30.11S
ROLLA          CLOUDY    78  72  81 SW8       30.12S
OSAGE BEACH    MOSUNNY   76  71  85 SW5       30.13S
SPRINGFIELD    MOSUNNY   78  68  71 W3        30.13F
BRANSON        PTSUNNY   77  70  78 CALM      30.15F
JOPLIN         CLOUDY    76  72  87 S5        30.11F
WEST PLAINS    CLOUDY    78  72  81 SE8       30.17S

$$

IAZ060-094-KSZ022-034>040-054-083-096-NEZ052-066-093-261700-
...KANSAS...SOUTHEAST NEBRASKA AND IOWA...

CITY           SKY/WX    TMP DP  RH WIND       PRES   REMARKS
TOPEKA         MOSUNNY   75  69  81 E8        30.09S
MANHATTAN      CLOUDY    69  67  93 E3        30.10R
EMPORIA        PTSUNNY   76  68  76 SE14      30.09S
CHANUTE        CLOUDY    80  70  71 E7        30.09F
WICHITA        PTSUNNY   74  68  81 S5        30.10R
OMAHA          CLOUDY    69  60  73 E10       30.13F
LINCOLN        CLOUDY    69  61  75 NE9       30.12F
FALLS CITY     CLOUDY    67  64  90 E8        30.11F
LAMONI         CLOUDY    70  64  81 VRB5      30.15S
DES MOINES     CLOUDY    68  62  81 E13       30.15F

$$





USA.gov is the U.S. government's official web portal to all federal, state and local government web resources and services.